﻿測定場所 (Monitoring sites),日付 (Measurement date),時間 (Measurement time),線量率 最大値 (max) μGy/h,線量率 最小値 (min) μGy/h,線量率 平均値 (average) μGy/h,
江東 (Koto),2012-12-16,23:01～24:00,0.0457,0.0407,0.0427,
江東 (Koto),2012-12-16,22:01～23:00,0.0450,0.0398,0.0429,
江東 (Koto),2012-12-16,21:01～22:00,0.0463,0.0407,0.0427,
江東 (Koto),2012-12-16,20:01～21:00,0.0456,0.0405,0.0429,
江東 (Koto),2012-12-16,19:01～20:00,0.0463,0.0403,0.0429,
江東 (Koto),2012-12-16,18:01～19:00,0.0457,0.0406,0.0428,
江東 (Koto),2012-12-16,17:01～18:00,0.0445,0.0400,0.0426,
江東 (Koto),2012-12-16,16:01～17:00,0.0459,0.0404,0.0428,
江東 (Koto),2012-12-16,15:01～16:00,0.0459,0.0408,0.0430,
江東 (Koto),2012-12-16,14:01～15:00,0.0448,0.0398,0.0426,
江東 (Koto),2012-12-16,13:01～14:00,0.0458,0.0394,0.0425,
江東 (Koto),2012-12-16,12:01～13:00,0.0457,0.0404,0.0425,
江東 (Koto),2012-12-16,11:01～12:00,0.0456,0.0409,0.0430,
江東 (Koto),2012-12-16,10:01～11:00,0.0461,0.0394,0.0428,
江東 (Koto),2012-12-16,09:01～10:00,0.0452,0.0406,0.0427,
江東 (Koto),2012-12-16,08:01～09:00,0.0460,0.0409,0.0429,
江東 (Koto),2012-12-16,07:01～08:00,0.0452,0.0409,0.0430,
江東 (Koto),2012-12-16,06:01～07:00,0.0465,0.0408,0.0433,
江東 (Koto),2012-12-16,05:01～06:00,0.0466,0.0405,0.0434,
江東 (Koto),2012-12-16,04:01～05:00,0.0477,0.0414,0.0443,
江東 (Koto),2012-12-16,03:01～04:00,0.0509,0.0434,0.0472,
江東 (Koto),2012-12-16,02:01～03:00,0.0531,0.0453,0.0486,
江東 (Koto),2012-12-16,01:01～02:00,0.0509,0.0410,0.0462,
江東 (Koto),2012-12-16,00:01～01:00,0.0464,0.0407,0.0432,
江東 (Koto),2012-12-15,23:01～24:00,0.0462,0.0403,0.0429,
江東 (Koto),2012-12-15,22:01～23:00,0.0455,0.0401,0.0428,
江東 (Koto),2012-12-15,21:01～22:00,0.0464,0.0397,0.0432,
江東 (Koto),2012-12-15,20:01～21:00,0.0451,0.0403,0.0429,
江東 (Koto),2012-12-15,19:01～20:00,0.0456,0.0411,0.0430,
江東 (Koto),2012-12-15,18:01～19:00,0.0452,0.0395,0.0431,
江東 (Koto),2012-12-15,17:01～18:00,0.0456,0.0405,0.0430,
江東 (Koto),2012-12-15,16:01～17:00,0.0461,0.0406,0.0434,
江東 (Koto),2012-12-15,15:01～16:00,0.0469,0.0409,0.0443,
江東 (Koto),2012-12-15,14:01～15:00,0.0471,0.0423,0.0449,
江東 (Koto),2012-12-15,13:01～14:00,0.0483,0.0423,0.0451,
江東 (Koto),2012-12-15,12:01～13:00,0.0477,0.0424,0.0447,
江東 (Koto),2012-12-15,11:01～12:00,0.0465,0.0410,0.0439,
江東 (Koto),2012-12-15,10:01～11:00,0.0465,0.0407,0.0432,
江東 (Koto),2012-12-15,09:01～10:00,0.0451,0.0405,0.0427,
江東 (Koto),2012-12-15,08:01～09:00,0.0464,0.0402,0.0433,
江東 (Koto),2012-12-15,07:01～08:00,0.0455,0.0407,0.0429,
江東 (Koto),2012-12-15,06:01～07:00,0.0453,0.0396,0.0429,
江東 (Koto),2012-12-15,05:01～06:00,0.0460,0.0406,0.0430,
江東 (Koto),2012-12-15,04:01～05:00,0.0472,0.0406,0.0434,
江東 (Koto),2012-12-15,03:01～04:00,0.0478,0.0414,0.0447,
江東 (Koto),2012-12-15,02:01～03:00,0.0475,0.0409,0.0440,
江東 (Koto),2012-12-15,01:01～02:00,0.0465,0.0403,0.0433,
江東 (Koto),2012-12-15,00:01～01:00,0.0455,0.0409,0.0431,
江東 (Koto),2012-12-14,23:01～24:00,0.0452,0.0411,0.0431,
江東 (Koto),2012-12-14,22:01～23:00,0.0461,0.0408,0.0433,
江東 (Koto),2012-12-14,21:01～22:00,0.0462,0.0393,0.0429,
江東 (Koto),2012-12-14,20:01～21:00,0.0451,0.0407,0.0427,
江東 (Koto),2012-12-14,19:01～20:00,0.0454,0.0401,0.0428,
江東 (Koto),2012-12-14,18:01～19:00,0.0447,0.0397,0.0424,
江東 (Koto),2012-12-14,17:01～18:00,0.0463,0.0396,0.0425,
江東 (Koto),2012-12-14,16:01～17:00,0.0463,0.0405,0.0429,
江東 (Koto),2012-12-14,15:01～16:00,0.0451,0.0404,0.0427,
江東 (Koto),2012-12-14,14:01～15:00,0.0451,0.0405,0.0426,
江東 (Koto),2012-12-14,13:01～14:00,0.0450,0.0408,0.0430,
江東 (Koto),2012-12-14,12:01～13:00,0.0454,0.0408,0.0430,
江東 (Koto),2012-12-14,11:01～12:00,0.0447,0.0404,0.0427,
江東 (Koto),2012-12-14,10:01～11:00,0.0448,0.0404,0.0427,
江東 (Koto),2012-12-14,09:01～10:00,0.0451,0.0394,0.0427,
江東 (Koto),2012-12-14,08:01～09:00,0.0448,0.0411,0.0431,
江東 (Koto),2012-12-14,07:01～08:00,0.0460,0.0400,0.0432,
江東 (Koto),2012-12-14,06:01～07:00,0.0455,0.0408,0.0431,
江東 (Koto),2012-12-14,05:01～06:00,0.0470,0.0408,0.0428,
江東 (Koto),2012-12-14,04:01～05:00,0.0468,0.0402,0.0425,
江東 (Koto),2012-12-14,03:01～04:00,0.0455,0.0401,0.0425,
江東 (Koto),2012-12-14,02:01～03:00,0.0458,0.0400,0.0427,
江東 (Koto),2012-12-14,01:01～02:00,0.0452,0.0399,0.0423,
江東 (Koto),2012-12-14,00:01～01:00,0.0461,0.0398,0.0424,
江東 (Koto),2012-12-13,23:01～24:00,0.0451,0.0397,0.0424,
江東 (Koto),2012-12-13,22:01～23:00,0.0453,0.0405,0.0424,
江東 (Koto),2012-12-13,21:01～22:00,0.0450,0.0398,0.0426,
江東 (Koto),2012-12-13,20:01～21:00,0.0455,0.0398,0.0424,
江東 (Koto),2012-12-13,19:01～20:00,0.0451,0.0391,0.0425,
江東 (Koto),2012-12-13,18:01～19:00,0.0456,0.0403,0.0428,
江東 (Koto),2012-12-13,17:01～18:00,0.0448,0.0397,0.0423,
江東 (Koto),2012-12-13,16:01～17:00,0.0458,0.0394,0.0427,
江東 (Koto),2012-12-13,15:01～16:00,0.0451,0.0391,0.0425,
江東 (Koto),2012-12-13,14:01～15:00,0.0467,0.0406,0.0425,
江東 (Koto),2012-12-13,13:01～14:00,0.0478,0.0406,0.0428,
江東 (Koto),2012-12-13,12:01～13:00,0.0454,0.0401,0.0426,
江東 (Koto),2012-12-13,11:01～12:00,0.0454,0.0395,0.0429,
江東 (Koto),2012-12-13,10:01～11:00,0.0441,0.0395,0.0423,
江東 (Koto),2012-12-13,09:01～10:00,0.0453,0.0400,0.0428,
江東 (Koto),2012-12-13,08:01～09:00,0.0459,0.0403,0.0427,
江東 (Koto),2012-12-13,07:01～08:00,0.0454,0.0404,0.0430,
江東 (Koto),2012-12-13,06:01～07:00,0.0462,0.0405,0.0429,
江東 (Koto),2012-12-13,05:01～06:00,0.0461,0.0406,0.0431,
江東 (Koto),2012-12-13,04:01～05:00,0.0454,0.0403,0.0431,
江東 (Koto),2012-12-13,03:01～04:00,0.0463,0.0406,0.0430,
江東 (Koto),2012-12-13,02:01～03:00,0.0458,0.0391,0.0428,
江東 (Koto),2012-12-13,01:01～02:00,0.0454,0.0402,0.0427,
江東 (Koto),2012-12-13,00:01～01:00,0.0456,0.0400,0.0425,
江東 (Koto),2012-12-12,23:01～24:00,0.0464,0.0393,0.0425,
江東 (Koto),2012-12-12,22:01～23:00,0.0459,0.0407,0.0428,
江東 (Koto),2012-12-12,21:01～22:00,0.0455,0.0406,0.0429,
江東 (Koto),2012-12-12,20:01～21:00,0.0453,0.0402,0.0426,
江東 (Koto),2012-12-12,19:01～20:00,0.0460,0.0388,0.0426,
江東 (Koto),2012-12-12,18:01～19:00,0.0450,0.0397,0.0426,
江東 (Koto),2012-12-12,17:01～18:00,0.0452,0.0406,0.0428,
江東 (Koto),2012-12-12,16:01～17:00,0.0458,0.0404,0.0427,
江東 (Koto),2012-12-12,15:01～16:00,0.0458,0.0403,0.0426,
江東 (Koto),2012-12-12,14:01～15:00,0.0457,0.0400,0.0425,
江東 (Koto),2012-12-12,13:01～14:00,0.0446,0.0400,0.0425,
江東 (Koto),2012-12-12,12:01～13:00,0.0461,0.0399,0.0425,
江東 (Koto),2012-12-12,11:01～12:00,0.0452,0.0395,0.0427,
江東 (Koto),2012-12-12,10:01～11:00,0.0455,0.0403,0.0430,
江東 (Koto),2012-12-12,09:01～10:00,0.0454,0.0403,0.0429,
江東 (Koto),2012-12-12,08:01～09:00,0.0467,0.0399,0.0429,
江東 (Koto),2012-12-12,07:01～08:00,0.0452,0.0405,0.0432,
江東 (Koto),2012-12-12,06:01～07:00,0.0470,0.0401,0.0431,
江東 (Koto),2012-12-12,05:01～06:00,0.0457,0.0394,0.0430,
江東 (Koto),2012-12-12,04:01～05:00,0.0458,0.0406,0.0430,
江東 (Koto),2012-12-12,03:01～04:00,0.0454,0.0402,0.0432,
江東 (Koto),2012-12-12,02:01～03:00,0.0456,0.0409,0.0433,
江東 (Koto),2012-12-12,01:01～02:00,0.0457,0.0411,0.0433,
江東 (Koto),2012-12-12,00:01～01:00,0.0461,0.0402,0.0428,
江東 (Koto),2012-12-11,23:01～24:00,0.0458,0.0403,0.0431,
江東 (Koto),2012-12-11,22:01～23:00,0.0449,0.0403,0.0429,
江東 (Koto),2012-12-11,21:01～22:00,0.0476,0.0409,0.0432,
江東 (Koto),2012-12-11,20:01～21:00,0.0464,0.0413,0.0432,
江東 (Koto),2012-12-11,19:01～20:00,0.0460,0.0399,0.0430,
江東 (Koto),2012-12-11,18:01～19:00,0.0450,0.0398,0.0428,
江東 (Koto),2012-12-11,17:01～18:00,0.0456,0.0411,0.0433,
江東 (Koto),2012-12-11,16:01～17:00,0.0476,0.0405,0.0431,
江東 (Koto),2012-12-11,15:01～16:00,0.0459,0.0402,0.0427,
江東 (Koto),2012-12-11,14:01～15:00,0.0451,0.0399,0.0425,
江東 (Koto),2012-12-11,13:01～14:00,0.0458,0.0400,0.0429,
江東 (Koto),2012-12-11,12:01～13:00,0.0453,0.0407,0.0430,
江東 (Koto),2012-12-11,11:01～12:00,0.0472,0.0405,0.0432,
江東 (Koto),2012-12-11,10:01～11:00,0.0453,0.0396,0.0430,
江東 (Koto),2012-12-11,09:01～10:00,0.0458,0.0406,0.0433,
江東 (Koto),2012-12-11,08:01～09:00,0.0465,0.0397,0.0432,
江東 (Koto),2012-12-11,07:01～08:00,0.0461,0.0408,0.0435,
江東 (Koto),2012-12-11,06:01～07:00,0.0461,0.0412,0.0433,
江東 (Koto),2012-12-11,05:01～06:00,0.0474,0.0400,0.0431,
江東 (Koto),2012-12-11,04:01～05:00,0.0462,0.0410,0.0430,
江東 (Koto),2012-12-11,03:01～04:00,0.0466,0.0407,0.0430,
江東 (Koto),2012-12-11,02:01～03:00,0.0457,0.0407,0.0432,
江東 (Koto),2012-12-11,01:01～02:00,0.0453,0.0404,0.0429,
江東 (Koto),2012-12-11,00:01～01:00,0.0458,0.0406,0.0430,
江東 (Koto),2012-12-10,23:01～24:00,0.0448,0.0407,0.0429,
江東 (Koto),2012-12-10,22:01～23:00,0.0462,0.0404,0.0429,
江東 (Koto),2012-12-10,21:01～22:00,0.0461,0.0408,0.0429,
江東 (Koto),2012-12-10,20:01～21:00,0.0455,0.0403,0.0429,
江東 (Koto),2012-12-10,19:01～20:00,0.0465,0.0403,0.0432,
江東 (Koto),2012-12-10,18:01～19:00,0.0462,0.0407,0.0430,
江東 (Koto),2012-12-10,17:01～18:00,0.0464,0.0406,0.0433,
江東 (Koto),2012-12-10,16:01～17:00,0.0454,0.0412,0.0433,
江東 (Koto),2012-12-10,15:01～16:00,0.0472,0.0410,0.0432,
江東 (Koto),2012-12-10,14:01～15:00,0.0459,0.0411,0.0431,
江東 (Koto),2012-12-10,13:01～14:00,0.0451,0.0404,0.0426,
江東 (Koto),2012-12-10,12:01～13:00,0.0455,0.0411,0.0427,
江東 (Koto),2012-12-10,11:01～12:00,0.0452,0.0399,0.0426,
江東 (Koto),2012-12-10,10:01～11:00,0.0459,0.0410,0.0432,
江東 (Koto),2012-12-10,09:01～10:00,0.0467,0.0395,0.0432,
江東 (Koto),2012-12-10,08:01～09:00,0.0460,0.0409,0.0434,
江東 (Koto),2012-12-10,07:01～08:00,0.0458,0.0413,0.0434,
江東 (Koto),2012-12-10,06:01～07:00,0.0467,0.0406,0.0433,
江東 (Koto),2012-12-10,05:01～06:00,0.0459,0.0393,0.0430,
江東 (Koto),2012-12-10,04:01～05:00,0.0464,0.0403,0.0430,
江東 (Koto),2012-12-10,03:01～04:00,0.0461,0.0400,0.0431,
江東 (Koto),2012-12-10,02:01～03:00,0.0463,0.0409,0.0434,
江東 (Koto),2012-12-10,01:01～02:00,0.0454,0.0394,0.0430,
江東 (Koto),2012-12-10,00:01～01:00,0.0460,0.0410,0.0431,
